Weather History for Audubon, IA

Change the Weather History Date:

Friday, November 15, 2013

  Actual Average Record
Temperature  
Mean Temperature 37 °F -  
Max Temperature 55 °F 47 °F 73 °F (2001)
Min Temperature 19 °F 28 °F 7 °F (1959)
Degree Days  
Heating Degree Days 28    
Moisture  
Dew Point 27 °F    
Average Humidity 68    
Maximum Humidity 86    
Minimum Humidity 36    
Precipitation  
Precipitation 0.00 in - - ()
Sea Level Pressure  
Sea Level Pressure 29.81 in    
Wind  
Wind Speed 3 mph (South)    
Max Wind Speed 14 mph    
Max Gust Speed 20 mph    
Visibility 10 miles    
Events      
Averages and records for this station are not official NWS values.
T = Trace of Precipitation, MM = Missing Value Source: NWS Daily Summary

Daily Weather History Graph

Daily Weather History Graph

Search for Another Location

Airport:

Trip Planner

Search our weather history database for the weather conditions in past years. The results will help you decide how hot, cold, wet, or windy it might be!

Date:

Astronomy

Nov. 15, 2013 Rise Set
Actual Time 7:09 AM CST 4:59 PM CST
Civil Twilight 6:39 AM CST 5:28 PM CST
Nautical Twilight 6:05 AM CST 6:02 PM CST
Astronomical Twilight 5:32 AM CST 6:35 PM CST
Moon 3:57 PM CST (11/15) 5:05 AM CST (11/15)
Length of Visible Light 10h 49m
Length of Day
9h 49m
Waxing Gibbous, 96% of the Moon is Illuminated
Nov 15
Waxing Gibbous
Nov 17
Full
Nov 25
Last Quarter
Dec 2
New
Dec 9
First Quarter

Hourly Weather History & Observations

Time (CST) Temp. Windchill Dew Point Humidity Pressure Visibility Wind Dir Wind Speed Gust Speed Precip Events Conditions
12:15 AM 24.8 °F - 19.4 °F 80% 29.89 in 10.0 mi Calm Calm - N/A   Clear
12:35 AM 24.8 °F - 19.4 °F 80% 29.89 in 10.0 mi Calm Calm - N/A   Clear
12:55 AM 24.8 °F - 19.4 °F 80% 29.89 in 10.0 mi Calm Calm - N/A   Clear
1:15 AM 24.8 °F - 19.4 °F 80% 29.90 in 10.0 mi Calm Calm - N/A   Clear
1:35 AM 24.8 °F - 19.4 °F 80% 29.90 in 10.0 mi Calm Calm - N/A   Clear
1:55 AM 23.0 °F - 17.6 °F 80% 29.89 in 10.0 mi Calm Calm - N/A   Clear
2:15 AM 23.0 °F - 17.6 °F 80% 29.89 in 10.0 mi Calm Calm - N/A   Clear
2:35 AM 23.0 °F - 17.6 °F 80% 29.89 in 10.0 mi Calm Calm - N/A   Clear
2:55 AM 24.8 °F - 19.4 °F 80% 29.88 in 10.0 mi Calm Calm - N/A   Clear
3:15 AM 23.0 °F - 17.6 °F 80% 29.88 in 10.0 mi Calm Calm - N/A   Clear
3:35 AM 21.2 °F - 17.6 °F 86% 29.88 in 10.0 mi Calm Calm - N/A   Clear
3:55 AM 21.2 °F - 17.6 °F 86% 29.88 in 10.0 mi Calm Calm - N/A   Clear
4:15 AM 21.2 °F - 17.6 °F 86% 29.87 in 10.0 mi Calm Calm - N/A   Clear
4:35 AM 21.2 °F - 15.8 °F 80% 29.87 in 10.0 mi Calm Calm - N/A   Clear
4:55 AM 21.2 °F - 15.8 °F 80% 29.88 in 10.0 mi Calm Calm - N/A   Clear
5:15 AM 21.2 °F - 15.8 °F 80% 29.88 in 10.0 mi Calm Calm - N/A   Clear
5:35 AM 21.2 °F - 17.6 °F 86% 29.87 in 10.0 mi Calm Calm - N/A   Clear
5:55 AM 21.2 °F - 17.6 °F 86% 29.87 in 10.0 mi Calm Calm - N/A   Clear
6:15 AM 21.2 °F - 15.8 °F 80% 29.87 in 10.0 mi Calm Calm - N/A   Clear
6:35 AM 21.2 °F - 15.8 °F 80% 29.87 in 10.0 mi Calm Calm - N/A   Clear
6:55 AM 21.2 °F - 15.8 °F 80% 29.88 in 10.0 mi Calm Calm - N/A   Clear
7:15 AM 19.4 °F - 15.8 °F 86% 29.88 in 10.0 mi Calm Calm - N/A   Clear
7:35 AM 21.2 °F - 17.6 °F 86% 29.88 in 10.0 mi Calm Calm - N/A   Clear
7:55 AM 24.8 °F - 19.4 °F 80% 29.89 in 10.0 mi Calm Calm - N/A   Clear
8:15 AM 26.6 °F - 21.2 °F 80% 29.89 in 10.0 mi Calm Calm - N/A   Clear
8:35 AM 32.0 °F 28.7 °F 26.6 °F 80% 29.89 in 10.0 mi SSE 3.5 mph - N/A   Clear
8:55 AM 35.6 °F - 28.4 °F 75% 29.89 in 10.0 mi Calm Calm - N/A   Clear
9:15 AM 37.4 °F 33.8 °F 30.2 °F 75% 29.89 in 10.0 mi SE 4.6 mph - N/A   Clear
9:35 AM 39.2 °F 35.9 °F 30.2 °F 70% 29.89 in 10.0 mi SE 4.6 mph - N/A   Clear
9:55 AM 42.8 °F 38.6 °F 32.0 °F 66% 29.89 in 10.0 mi SSE 6.9 mph - N/A   Clear
10:15 AM 42.8 °F 38.0 °F 30.2 °F 61% 29.89 in 10.0 mi South 8.1 mph - N/A   Clear
10:35 AM 46.4 °F 42.9 °F 32.0 °F 57% 29.88 in 10.0 mi South 6.9 mph - N/A   Clear
10:55 AM 48.2 °F - 32.0 °F 54% 29.87 in 10.0 mi SSE 6.9 mph - N/A   Clear
11:15 AM 48.2 °F - 32.0 °F 54% 29.87 in 10.0 mi South 6.9 mph - N/A   Clear
11:35 AM 48.2 °F - 32.0 °F 54% 29.86 in 10.0 mi South 8.1 mph - N/A   Clear
11:55 AM 50.0 °F - 32.0 °F 50% 29.85 in 10.0 mi South 8.1 mph - N/A   Clear
12:15 PM 51.8 °F - 30.2 °F 44% 29.84 in 10.0 mi South 8.1 mph - N/A   Clear
12:35 PM 51.8 °F - 30.2 °F 44% 29.82 in 10.0 mi South 10.4 mph - N/A   Clear
12:55 PM 53.6 °F - 30.2 °F 41% 29.81 in 10.0 mi South 10.4 mph - N/A   Clear
1:15 PM 53.6 °F - 28.4 °F 38% 29.80 in 10.0 mi South 11.5 mph 17.3 mph N/A   Clear
1:35 PM 53.6 °F - 28.4 °F 38% 29.79 in 10.0 mi South 10.4 mph - N/A   Clear
1:55 PM 53.6 °F - 28.4 °F 38% 29.79 in 10.0 mi South 11.5 mph - N/A   Clear
2:15 PM 53.6 °F - 30.2 °F 41% 29.78 in 10.0 mi South 10.4 mph 16.1 mph N/A   Clear
2:35 PM 55.4 °F - 30.2 °F 38% 29.78 in 10.0 mi South 11.5 mph 19.6 mph N/A   Clear
2:55 PM 55.4 °F - 28.4 °F 36% 29.76 in 10.0 mi South 12.7 mph - N/A   Clear
3:15 PM 55.4 °F - 30.2 °F 38% 29.76 in 10.0 mi South 11.5 mph 16.1 mph N/A   Clear
3:35 PM 55.4 °F - 30.2 °F 38% 29.75 in 10.0 mi South 11.5 mph - N/A   Clear
3:55 PM 53.6 °F - 30.2 °F 41% 29.75 in 10.0 mi South 10.4 mph - N/A   Clear
4:15 PM 53.6 °F - 30.2 °F 41% 29.74 in 10.0 mi SSE 9.2 mph - N/A   Clear
4:35 PM 51.8 °F - 30.2 °F 44% 29.74 in 10.0 mi South 6.9 mph - N/A   Clear
4:55 PM 48.2 °F - 32.0 °F 54% 29.74 in 10.0 mi South 6.9 mph - N/A   Clear
5:15 PM 46.4 °F 45.2 °F 30.2 °F 53% 29.74 in 10.0 mi South 3.5 mph - N/A   Clear
5:35 PM 41.0 °F - 30.2 °F 65% 29.73 in 10.0 mi Calm Calm - N/A   Clear
5:55 PM 39.2 °F - 30.2 °F 70% 29.72 in 10.0 mi Calm Calm - N/A   Clear
6:15 PM 41.0 °F - 30.2 °F 65% 29.72 in 10.0 mi Calm Calm - N/A   Clear
6:35 PM 37.4 °F 34.9 °F 30.2 °F 75% 29.71 in 10.0 mi SE 3.5 mph - N/A   Clear
6:55 PM 39.2 °F - 30.2 °F 70% 29.71 in 10.0 mi Calm Calm - N/A   Clear
7:15 PM 41.0 °F 36.4 °F 33.8 °F 76% 29.72 in 10.0 mi South 6.9 mph - N/A   Clear
7:35 PM 42.8 °F 37.5 °F 33.8 °F 70% 29.71 in 10.0 mi South 9.2 mph - N/A   Clear
7:55 PM 44.6 °F 40.2 °F 33.8 °F 66% 29.70 in 10.0 mi South 8.1 mph - N/A   Clear
8:15 PM 42.8 °F 40.1 °F 33.8 °F 70% 29.70 in 10.0 mi SSE 4.6 mph - N/A   Clear
8:35 PM 41.0 °F 37.1 °F 33.8 °F 76% 29.69 in 10.0 mi SSE 5.8 mph - N/A   Clear
8:55 PM 39.2 °F 34.2 °F 33.8 °F 81% 29.69 in 10.0 mi SSE 6.9 mph - N/A   Clear
9:15 PM 41.0 °F 36.4 °F 33.8 °F 76% 29.69 in 10.0 mi South 6.9 mph - N/A   Clear
9:35 PM 42.8 °F 39.3 °F 35.6 °F 76% 29.69 in 10.0 mi SSE 5.8 mph - N/A   Clear
9:55 PM 42.8 °F 38.6 °F 35.6 °F 76% 29.69 in 10.0 mi South 6.9 mph - N/A   Clear
10:15 PM 42.8 °F 39.3 °F 35.6 °F 76% 29.68 in 10.0 mi South 5.8 mph - N/A   Clear
10:35 PM 44.6 °F 40.2 °F 37.4 °F 76% 29.67 in 10.0 mi South 8.1 mph - N/A   Clear
10:55 PM 46.4 °F 41.9 °F 37.4 °F 71% 29.67 in 10.0 mi South 9.2 mph - N/A   Clear
11:15 PM 44.6 °F 38.1 °F 37.4 °F 76% 29.66 in 10.0 mi South 13.8 mph 17.3 mph N/A   Clear
11:35 PM 44.6 °F 38.8 °F 37.4 °F 76% 29.65 in 10.0 mi South 11.5 mph 17.3 mph N/A   Clear
11:55 PM 44.6 °F 39.2 °F 37.4 °F 76% 29.65 in 10.0 mi South 10.4 mph 18.4 mph N/A   Clear